EW2670 Weather Reports


Display with metric or nautical units.
time (UTC)temp
F
wind
direction
speed
MPH
gust
MPH
rain 1hr
in
rain 24hr
in
rain mn
in
humidity
%
barometer
mb
20260508083516 42 225 2.0 3.0 0.00 0.00 0.00 89 1010.2
20260508083017 42 0.0 0.0 0.00 0.00 0.00 88 1010.1
20260508082516 42 0.0 0.0 0.00 0.00 0.00 87 1010.4
20260508082016 43 0.0 0.0 0.00 0.00 0.00 88 1010.6
20260508081516 43 0.0 0.0 0.00 0.00 0.00 90 1010.8
20260508081016 43 0.0 0.0 0.00 0.00 0.00 89 1010.9
20260508080537 42 0.0 0.0 0.00 0.00 0.00 88 1011.1
20260508080016 42 0.0 0.0 0.00 0.00 0.00 89 1011.2
20260508075516 41 0.0 0.0 0.00 0.00 0.00 87 1011.1
20260508075036 42 0.0 0.0 0.00 0.00 0.00 84 1011.2
20260508074516 44 0.0 0.0 0.00 0.00 0.00 84 1011.4
20260508074016 45 0.0 0.0 0.00 0.00 0.00 83 1011.4
20260508073516 45 0.0 0.0 0.00 0.00 0.00 82 1011.4
20260508073016 46 0.0 0.0 0.00 0.00 0.00 83 1011.5
20260508072516 46 0.0 0.0 0.00 0.00 0.00 83 1011.5
20260508072016 46 0.0 0.0 0.00 0.00 0.00 82 1011.5
20260508071516 46 0.0 0.0 0.00 0.00 0.00 82 1011.5
20260508071016 46 0.0 0.0 0.00 0.00 0.00 82 1011.6
20260508070516 46 0.0 0.0 0.00 0.00 0.00 83 1011.7
20260508070016 47 0.0 0.0 0.00 0.00 0.00 83 1011.4
20260508065516 47 0.0 0.0 0.00 0.00 0.00 82 1011.3
20260508065016 48 0.0 1.0 0.00 0.00 0.00 82 1011.4
20260508064516 48 225 1.0 2.0 0.00 0.00 0.00 81 1011.3
20260508064056 48 225 3.0 3.0 0.00 0.00 0.00 79 1011.4
20260508063517 49 225 1.0 3.0 0.00 0.00 0.00 76 1011.3
20260508063016 50 0.0 0.0 0.00 0.00 0.00 77 1011.2
20260508062516 50 0 1.0 2.0 0.00 0.00 0.00 76 1011.2
20260508062016 51 0 2.0 4.0 0.00 0.00 0.00 75 1011.2
20260508061516 51 0.0 2.0 0.00 0.00 0.00 74 1011.3
20260508061016 51 0.0 3.0 0.00 0.00 0.00 74 1011.2
20260508060516 52 45 1.0 2.0 0.00 0.00 0.00 73 1011.4
20260508060021 51 67 2.0 3.0 0.00 0.00 0.00 75 1011.2
20260508055517 51 67 2.0 3.0 0.00 0.00 0.00 75 1011.3
20260508055037 52 67 3.0 9.0 0.00 0.00 0.00 72 1011.6
20260508054517 52 45 2.0 8.0 0.00 0.00 0.00 73 1011.8
20260508054017 52 67 2.0 3.0 0.00 0.00 0.00 73 1011.8
20260508053517 53 112 3.0 5.0 0.00 0.00 0.00 71 1011.4
20260508053017 52 180 5.0 9.0 0.00 0.00 0.00 71 1011.3
20260508052538 52 180 4.0 9.0 0.00 0.00 0.00 72 1011.3
20260508052018 52 180 5.0 7.0 0.00 0.00 0.00 72 1011.3
20260508051517 52 202 6.0 10.0 0.00 0.00 0.00 74 1011.2
20260508051017 51 225 6.0 11.0 0.00 0.00 0.00 75 1011.8
20260508050517 52 225 6.0 8.0 0.00 0.00 0.00 74 1011.5
20260508050017 51 202 4.0 6.0 0.00 0.00 0.00 75 1011.1
20260508045557 51 225 5.0 6.0 0.00 0.00 0.00 76 1010.9
20260508045017 52 337 2.0 4.0 0.00 0.00 0.00 75 1010.8
20260508044538 52 337 1.0 2.0 0.00 0.00 0.00 72 1010.8
20260508044037 52 0.0 1.0 0.00 0.00 0.00 71 1010.9
20260508043519 52 337 1.0 2.0 0.00 0.00 0.00 72 1010.7
20260508043037 52 0.0 0.0 0.00 0.00 0.00 72 1010.6
20260508042518 52 0.0 1.0 0.00 0.00 0.00 71 1010.5
20260508042037 52 45 1.0 2.0 0.00 0.00 0.00 71 1010.5
20260508041517 52 67 2.0 4.0 0.00 0.00 0.00 71 1010.5
20260508041017 52 45 1.0 3.0 0.00 0.00 0.00 71 1010.5
20260508040517 52 67 3.0 6.0 0.00 0.00 0.00 72 1010.7
20260508040018 53 112 6.0 8.0 0.00 0.00 0.00 71 1011.1
20260508035537 54 247 4.0 7.0 0.00 0.00 0.00 68 1011.0
20260508035017 54 247 2.0 4.0 0.00 0.00 0.00 63 1011.6
20260508034517 54 270 3.0 4.0 0.00 0.00 0.00 62 1011.9
20260508034017 54 292 2.0 3.0 0.00 0.00 0.00 62 1011.4
20260508033517 54 22 1.0 4.0 0.00 0.00 0.00 62 1011.0
20260508033037 54 90 3.0 5.0 0.00 0.00 0.00 63 1010.6
20260508032517 54 67 2.0 5.0 0.00 0.00 0.00 62 1010.6
20260508032016 55 22 2.0 4.0 0.00 0.00 0.00 61 1010.4
20260508031537 55 22 1.0 3.0 0.00 0.00 0.00 59 1010.3
20260508031016 56 22 1.0 5.0 0.00 0.00 0.00 58 1010.1
20260508030516 57 45 2.0 4.0 0.00 0.00 0.00 55 1010.2
20260508030017 57 45 2.0 7.0 0.00 0.00 0.00 53 1010.2
20260508025517 58 22 3.0 7.0 0.00 0.00 0.00 51 1010.1
20260508025017 58 45 4.0 8.0 0.00 0.00 0.00 50 1010.1
20260508024516 58 67 2.0 5.0 0.00 0.00 0.00 52 1010.0
20260508024017 58 0.0 1.0 0.00 0.00 0.00 52 1009.9
20260508023516 58 67 2.0 4.0 0.00 0.00 0.00 50 1010.0
20260508023017 59 0.0 2.0 0.00 0.00 0.00 49 1010.2
20260508022516 59 337 1.0 5.0 0.00 0.00 0.00 48 1010.0
20260508022017 58 0 2.0 4.0 0.00 0.00 0.00 49 1010.0
20260508021517 58 0 1.0 2.0 0.00 0.00 0.00 51 1009.9
20260508021017 59 22 1.0 2.0 0.00 0.00 0.00 51 1009.8
20260508020516 59 45 1.0 3.0 0.00 0.00 0.00 49 1009.8
20260508020017 59 0.0 2.0 0.00 0.00 0.00 49 1009.8
20260508015516 59 0.0 0.0 0.00 0.00 0.00 49 1009.6
20260508015017 59 0.0 0.0 0.00 0.00 0.00 49 1009.5
20260508014517 60 0.0 1.0 0.00 0.00 0.00 47 1009.3
20260508014016 60 0.0 2.0 0.00 0.00 0.00 49 1009.4
20260508013517 60 0.0 0.0 0.00 0.00 0.00 48 1009.3
20260508013037 61 0.0 1.0 0.00 0.00 0.00 45 1009.1
20260508012537 61 0 1.0 2.0 0.00 0.00 0.00 44 1009.0
20260508012017 61 0 1.0 2.0 0.00 0.00 0.00 43 1009.0
20260508011537 62 0 2.0 3.0 0.00 0.00 0.00 42 1009.0
20260508011017 62 0 3.0 6.0 0.00 0.00 0.00 43 1009.2
20260508010517 63 270 3.0 5.0 0.00 0.00 0.00 41 1009.3
20260508010016 62 292 2.0 4.0 0.00 0.00 0.00 41 1009.1
20260508005517 61 337 3.0 5.0 0.00 0.00 0.00 42 1009.1
20260508005016 61 337 5.0 10.0 0.00 0.00 0.00 44 1009.1
20260508004516 61 337 6.0 12.0 0.00 0.00 0.00 43 1009.2
20260508004016 61 337 4.0 9.0 0.00 0.00 0.00 44 1009.4
20260508003516 61 315 4.0 7.0 0.00 0.00 0.00 44 1009.5
20260508003016 62 315 5.0 8.0 0.00 0.00 0.00 42 1009.3
20260508002517 63 337 6.0 11.0 0.00 0.00 0.00 39 1009.2
20260508002016 64 337 5.0 8.0 0.00 0.00 0.00 37 1009.1
20260508001536 66 337 5.0 15.0 0.00 0.00 0.00 33 1009.1
20260508001016 66 337 2.0 6.0 0.00 0.00 0.00 32 1009.1
20260508000516 67 337 3.0 5.0 0.00 0.00 0.00 29 1009.1
20260508000017 67 337 2.0 4.0 0.00 0.00 0.00 29 1009.0
20260507235517 68 315 2.0 5.0 0.00 0.00 0.00 31 1009.1
20260507235037 69 315 4.0 6.0 0.00 0.00 0.00 27 1009.2
20260507234517 70 292 3.0 5.0 0.00 0.00 0.00 25 1009.2
20260507234016 71 315 4.0 8.0 0.00 0.00 0.00 24 1009.5
20260507233538 71 315 4.0 8.0 0.00 0.00 0.00 24 1009.5
20260507233018 72 337 3.0 6.0 0.00 0.00 0.00 25 1009.7
20260507232516 70 225 7.0 12.0 0.00 0.00 0.00 25 1009.6
20260507232017 70 247 7.0 13.0 0.00 0.00 0.00 24 1009.5
20260507231519 70 225 5.0 9.0 0.00 0.00 0.00 24 1009.7
20260507231016 69 270 9.0 14.0 0.00 0.00 0.00 28 1009.7
20260507230517 69 270 6.0 10.0 0.00 0.00 0.00 24 1009.6
20260507230016 69 270 6.0 13.0 0.00 0.00 0.00 24 1009.6
20260507225516 70 225 5.0 8.0 0.00 0.00 0.00 24 1009.8
20260507225016 69 135 3.0 7.0 0.00 0.00 0.00 24 1009.6
20260507224516 70 180 5.0 10.0 0.00 0.00 0.00 23 1009.7
20260507224016 70 225 3.0 7.0 0.00 0.00 0.00 25 1009.8
20260507223516 70 45 2.0 3.0 0.00 0.00 0.00 26 1009.8
20260507223016 70 247 3.0 8.0 0.00 0.00 0.00 24 1009.9
20260507222516 70 180 5.0 8.0 0.00 0.00 0.00 26 1010.1
20260507222017 70 180 6.0 11.0 0.00 0.00 0.00 25 1010.1
20260507221516 69 202 5.0 10.0 0.00 0.00 0.00 26 1010.2
20260507221036 69 225 6.0 11.0 0.00 0.00 0.00 28 1010.3
20260507220517 70 180 6.0 11.0 0.00 0.00 0.00 27 1010.4
20260507220017 70 247 5.0 9.0 0.00 0.00 0.00 22 1010.5
20260507215516 71 202 6.0 14.0 0.00 0.00 0.00 26 1010.7
20260507215016 70 337 3.0 9.0 0.00 0.00 0.00 23 1010.6
20260507214516 70 225 10.0 19.0 0.00 0.00 0.00 27 1011.0
20260507214016 70 247 7.0 14.0 0.00 0.00 0.00 26 1011.0
20260507213516 70 247 8.0 14.0 0.00 0.00 0.00 24 1011.0
20260507213016 70 225 12.0 19.0 0.00 0.00 0.00 26 1011.2
20260507212536 69 247 8.0 12.0 0.00 0.00 0.00 27 1011.1
20260507212036 69 247 13.0 19.0 0.00 0.00 0.00 24 1011.2
20260507211537 70 270 9.0 16.0 0.00 0.00 0.00 27 1011.4
20260507211036 69 270 9.0 17.0 0.00 0.00 0.00 26 1011.4
20260507210516 69 247 11.0 18.0 0.00 0.00 0.00 25 1011.7
20260507210016 69 247 12.0 16.0 0.00 0.00 0.00 26 1012.0
20260507205516 69 247 12.0 19.0 0.00 0.00 0.00 26 1011.9
20260507205017 69 270 13.0 17.0 0.00 0.00 0.00 27 1012.1
20260507204517 69 247 11.0 18.0 0.00 0.00 0.00 26 1012.1
20260507204017 69 247 12.0 17.0 0.00 0.00 0.00 27 1012.3
20260507203516 69 247 13.0 23.0 0.00 0.00 0.00 27 1012.3
20260507203017 69 270 9.0 16.0 0.00 0.00 0.00 27 1012.4
20260507202517 69 270 9.0 13.0 0.00 0.00 0.00 27 1012.3
20260507202036 68 247 11.0 22.0 0.00 0.00 0.00 28 1012.3
20260507201517 69 247 12.0 20.0 0.00 0.00 0.00 27 1012.3
20260507201017 69 270 9.0 16.0 0.00 0.00 0.00 29 1012.4
20260507200516 68 247 12.0 17.0 0.00 0.00 0.00 28 1012.3
20260507200016 69 225 11.0 19.0 0.00 0.00 0.00 28 1012.4
20260507195516 69 270 6.0 10.0 0.00 0.00 0.00 29 1012.5
20260507195018 68 270 6.0 11.0 0.00 0.00 0.00 27 1012.5
20260507194516 68 247 10.0 18.0 0.00 0.00 0.00 27 1012.6
20260507194036 67 247 11.0 21.0 0.00 0.00 0.00 30 1012.5
20260507193516 67 225 5.0 14.0 0.00 0.00 0.00 28 1012.5
20260507193016 66 225 5.0 12.0 0.00 0.00 0.00 30 1012.5
20260507192516 67 180 7.0 12.0 0.00 0.01 0.00 28 1012.7
20260507192018 67 202 6.0 13.0 0.00 0.03 0.00 30 1012.8
20260507191517 66 180 8.0 15.0 0.00 0.06 0.00 30 1013.0
20260507191016 66 202 8.0 16.0 0.00 0.08 0.00 34 1013.1
20260507190516 66 202 8.0 17.0 0.00 0.10 0.00 31 1013.2
20260507190017 66 225 8.0 13.0 0.00 0.13 0.00 29 1013.3
20260507185516 66 225 9.0 15.0 0.00 0.15 0.00 29 1013.3
20260507185016 66 225 5.0 12.0 0.00 0.18 0.00 29 1013.3
20260507184535 66 180 5.0 9.0 0.00 0.20 0.00 30 1013.5
20260507184016 66 157 6.0 11.0 0.00 0.22 0.00 29 1013.6
20260507183517 67 225 7.0 13.0 0.00 0.25 0.00 30 1013.9
20260507183016 65 180 5.0 10.0 0.00 0.27 0.00 29 1013.7
20260507182536 65 225 9.0 14.0 0.00 0.30 0.00 29 1013.8
20260507182015 66 202 9.0 14.0 0.00 0.32 0.00 33 1014.0
20260507181537 65 247 9.0 12.0 0.00 0.35 0.00 31 1014.0
20260507181015 65 225 10.0 14.0 0.00 0.38 0.00 33 1014.3
20260507180516 65 225 11.0 15.0 0.00 0.40 0.00 34 1014.3
20260507180016 64 225 9.0 16.0 0.00 0.43 0.00 34 1014.3
20260507175516 62 225 9.0 13.0 0.00 0.45 0.00 34 1014.3
20260507175016 62 225 9.0 12.0 0.00 0.48 0.00 37 1014.3
20260507174556 61 225 10.0 12.0 0.00 0.50 0.00 36 1014.3
20260507174016 61 225 9.0 12.0 0.00 0.52 0.00 38 1014.3
20260507173516 60 202 9.0 14.0 0.00 0.53 0.00 37 1014.2
20260507173016 60 202 10.0 14.0 0.00 0.55 0.00 38 1014.4
20260507172516 60 202 8.0 13.0 0.00 0.56 0.00 37 1014.5
20260507172036 60 202 8.0 11.0 0.00 0.57 0.00 38 1014.5
20260507171515 60 202 7.0 10.0 0.00 0.58 0.00 40 1014.7
20260507171017 59 225 9.0 12.0 0.00 0.59 0.00 42 1014.7
20260507170516 58 225 11.0 15.0 0.00 0.60 0.00 41 1014.7
20260507170018 58 225 12.0 16.0 0.00 0.61 0.00 40 1014.9
20260507165517 58 225 10.0 13.0 0.00 0.62 0.00 43 1015.0
20260507165059 57 225 12.0 17.0 0.00 0.63 0.00 41 1014.9
20260507164515 57 225 12.0 17.0 0.00 0.63 0.00 40 1015.0
20260507164037 57 225 10.0 15.0 0.00 0.63 0.00 44 1014.9
20260507163517 56 225 11.0 14.0 0.00 0.64 0.00 44 1015.0
20260507163037 56 225 12.0 17.0 0.00 0.64 0.00 45 1014.9
20260507162517 55 225 12.0 17.0 0.00 0.65 0.00 44 1014.9
20260507162015 55 202 11.0 16.0 0.00 0.66 0.00 41 1014.9
20260507161518 55 202 11.0 18.0 0.00 0.66 0.00 40 1015.2
20260507161018 56 225 9.0 15.0 0.00 0.67 0.00 40 1015.3
20260507160537 56 247 8.0 14.0 0.00 0.67 0.00 40 1015.3
20260507160017 56 247 10.0 17.0 0.00 0.67 0.00 40 1015.4
20260507155518 55 247 10.0 14.0 0.00 0.68 0.00 40 1015.4
20260507155016 55 247 9.0 15.0 0.00 0.68 0.00 42 1015.5
20260507154517 55 247 3.0 11.0 0.00 0.69 0.00 47 1015.6
20260507154017 55 0.0 1.0 0.00 0.69 0.00 52 1015.7
20260507153537 54 112 1.0 3.0 0.00 0.70 0.00 51 1015.6
20260507153017 54 112 6.0 8.0 0.00 0.70 0.00 48 1015.6
20260507152517 56 202 3.0 7.0 0.00 0.70 0.00 47 1015.7
20260507152017 57 225 6.0 12.0 0.00 0.71 0.00 44 1015.5
20260507151517 56 225 4.0 9.0 0.00 0.71 0.00 45 1015.5
20260507151017 55 270 2.0 4.0 0.00 0.71 0.00 45 1015.7
20260507150517 54 0.0 2.0 0.00 0.71 0.00 52 1015.9
20260507150017 54 0.0 1.0 0.00 0.71 0.00 49 1015.8
20260507145517 54 0.0 2.0 0.00 0.71 0.00 45 1015.9
20260507145017 54 0 1.0 2.0 0.00 0.71 0.00 50 1016.0
20260507144518 53 0.0 2.0 0.00 0.71 0.00 49 1016.1
20260507144017 53 22 1.0 2.0 0.00 0.71 0.00 50 1016.1
20260507143517 53 22 1.0 4.0 0.00 0.71 0.00 50 1016.0
20260507143017 53 0.0 1.0 0.00 0.71 0.00 46 1016.1
20260507142518 53 0.0 1.0 0.00 0.71 0.00 44 1016.0
20260507142037 53 0.0 2.0 0.00 0.71 0.00 42 1015.9
20260507141518 53 135 1.0 2.0 0.00 0.71 0.00 43 1015.9
20260507141017 52 0.0 2.0 0.00 0.72 0.00 44 1015.9
20260507140517 51 0.0 2.0 0.00 0.72 0.00 48 1016.0
20260507140017 51 135 1.0 3.0 0.00 0.72 0.00 46 1015.9
20260507135557 50 202 1.0 2.0 0.00 0.72 0.00 49 1016.1
20260507135017 50 112 1.0 3.0 0.00 0.72 0.00 47 1016.1
20260507134517 50 112 1.0 2.0 0.00 0.72 0.00 46 1016.1
20260507134057 51 112 1.0 2.0 0.00 0.72 0.00 45 1016.0
20260507133519 51 112 3.0 5.0 0.00 0.72 0.00 42 1015.9
20260507133019 52 180 2.0 4.0 0.00 0.72 0.00 42 1016.0
20260507132517 52 135 3.0 6.0 0.00 0.72 0.00 42 1016.0
20260507132017 51 157 2.0 6.0 0.00 0.72 0.00 43 1016.0
20260507131517 50 225 3.0 4.0 0.00 0.72 0.00 44 1016.0
20260507131017 51 135 3.0 5.0 0.00 0.72 0.00 40 1015.9
20260507130518 51 180 2.0 5.0 0.00 0.72 0.00 40 1015.9
20260507130017 50 180 2.0 5.0 0.00 0.72 0.00 42 1015.8
20260507125537 50 180 3.0 7.0 0.00 0.72 0.00 43 1015.9
20260507125017 50 157 3.0 5.0 0.00 0.72 0.00 43 1015.7
20260507124517 50 157 3.0 4.0 0.00 0.72 0.00 42 1015.7
20260507124017 49 180 3.0 5.0 0.00 0.72 0.00 42 1015.7
20260507123537 50 225 3.0 5.0 0.00 0.72 0.00 42 1015.8
20260507123037 49 180 5.0 8.0 0.00 0.72 0.00 42 1015.7
20260507122517 47 90 4.0 8.0 0.00 0.72 0.00 45 1015.6
20260507122037 46 90 2.0 5.0 0.00 0.72 0.00 49 1015.7
20260507121537 45 67 3.0 5.0 0.00 0.72 0.00 49 1015.6
20260507121017 45 0.0 2.0 0.00 0.72 0.00 50 1015.6
20260507120517 45 180 1.0 2.0 0.00 0.72 0.00 49 1015.5
20260507120018 44 0.0 2.0 0.00 0.72 0.00 50 1015.5
20260507115517 45 202 2.0 5.0 0.00 0.72 0.00 51 1015.5
20260507115017 45 225 2.0 5.0 0.00 0.72 0.00 49 1015.5
20260507114517 46 202 4.0 7.0 0.00 0.72 0.00 49 1015.6
20260507114017 46 225 4.0 6.0 0.00 0.72 0.00 46 1015.6
20260507113517 47 225 5.0 8.0 0.00 0.72 0.00 45 1015.8
20260507113017 48 225 7.0 10.0 0.00 0.72 0.00 45 1015.9
20260507112537 48 225 6.0 9.0 0.00 0.72 0.00 44 1015.9
20260507112018 49 202 6.0 10.0 0.00 0.72 0.00 42 1015.9
20260507111517 49 202 6.0 9.0 0.00 0.72 0.00 42 1015.9
20260507111017 50 202 6.0 9.0 0.00 0.72 0.00 40 1015.9
20260507110517 49 180 4.0 8.0 0.00 0.72 0.00 42 1015.8
20260507110017 48 225 4.0 5.0 0.00 0.72 0.00 42 1015.9
20260507105517 47 247 3.0 5.0 0.00 0.72 0.00 46 1015.9
20260507105017 47 225 5.0 7.0 0.00 0.72 0.00 45 1015.9
20260507104517 46 247 7.0 10.0 0.00 0.72 0.00 47 1015.9
20260507104037 46 225 7.0 9.0 0.00 0.72 0.00 50 1015.9
20260507103517 46 225 7.0 9.0 0.00 0.72 0.00 48 1016.0
20260507103017 46 247 7.0 9.0 0.00 0.72 0.00 48 1015.9
20260507102516 46 225 9.0 12.0 0.00 0.72 0.00 48 1015.9
20260507102017 47 225 11.0 17.0 0.00 0.72 0.00 46 1015.8
20260507101517 46 225 8.0 13.0 0.00 0.72 0.00 47 1015.9
20260507101017 47 225 8.0 10.0 0.00 0.72 0.00 47 1016.2
20260507100517 48 247 7.0 10.0 0.00 0.72 0.00 43 1016.3
20260507100017 48 225 4.0 8.0 0.00 0.72 0.00 43 1016.4
20260507095516 48 202 4.0 8.0 0.00 0.72 0.00 44 1016.5
20260507095016 48 202 4.0 11.0 0.00 0.72 0.00 44 1016.3
20260507094517 46 225 2.0 9.0 0.00 0.72 0.00 45 1016.3
20260507094036 47 202 1.0 3.0 0.00 0.72 0.00 44 1016.4
20260507093517 47 225 2.0 5.0 0.00 0.72 0.00 45 1016.6
20260507093017 47 270 3.0 6.0 0.00 0.72 0.00 45 1016.5
20260507092516 45 337 2.0 4.0 0.00 0.72 0.00 48 1016.6
20260507092016 41 337 3.0 5.0 0.00 0.72 0.00 54 1016.3
20260507091516 42 247 2.0 4.0 0.00 0.72 0.00 55 1016.3
20260507091016 42 247 1.0 3.0 0.00 0.72 0.00 54 1016.3
20260507090516 41 247 1.0 2.0 0.00 0.72 0.00 55 1016.2
20260507090017 42 247 2.0 3.0 0.00 0.72 0.00 52 1016.1
20260507085517 43 247 1.0 2.0 0.00 0.72 0.00 49 1016.4
20260507085016 43 247 1.0 2.0 0.00 0.72 0.00 49 1016.1
20260507084517 44 0.0 1.0 0.00 0.72 0.00 49 1016.2
20260507084016 44 0.0 2.0 0.00 0.72 0.00 49 1016.1